Shreveport Downtown, LA

7:17 PM CDT on June 24, 2017 (GMT -0500)
Shreveport Downtown

Weather History for KDTN - December, 2012

Change the Weather History Date:

Sunday, December 9, 2012

  Actual Average (KBAD) Record (KBAD)
Temperature  
Mean Temperature 66 °F -  
Max Temperature 75 °F 55 °F 79 °F (2007)
Min Temperature 54 °F 37 °F 21 °F (2005)
Cooling Degree Days 1    
Growing Degree Days 16 (Base 50)    
Moisture  
Dew Point 63 °F    
Average Humidity 87    
Maximum Humidity 100    
Minimum Humidity 62    
Precipitation  
Precipitation 0.23 in - - ()
Sea Level Pressure  
Sea Level Pressure 29.84 in    
Wind  
Wind Speed 9 mph (South)    
Max Wind Speed 16 mph    
Max Gust Speed 22 mph    
Visibility 9 miles    
Events Rain , Thunderstorm    
Averages and records for this station are not official NWS values.
T = Trace of Precipitation, MM = Missing Value Source: NWS Daily Summary

Daily Weather History Graph

Daily Weather History Graph

Search for Another Location

Airport or City:

Trip Planner

Search our weather history database for the weather conditions in past years. The results will help you decide how hot, cold, wet, or windy it might be!

Date:

Astronomy

Dec. 09, 2012 Rise Set
Actual Time 7:05 AM CST 5:09 PM CST
Civil Twilight 6:38 AM CST 5:36 PM CST
Nautical Twilight 6:07 AM CST 6:07 PM CST
Astronomical Twilight 5:37 AM CST 6:37 PM CST
Moon 2:49 AM CST (12/9) 2:08 PM CST (12/9)
Length of Visible Light 10h 58m
Length of Day
10h 03m
Waning Crescent, 18% of the Moon is Illuminated
Dec 9
Waning Crescent
Dec 13
New
Dec 19
First Quarter
Dec 28
Full
Jan 4
Last Quarter

Hourly Weather History & Observations

Time (CST) Temp. Dew Point Humidity Pressure Visibility Wind Dir Wind Speed Gust Speed Precip Events Conditions
12:53 AM 66.9 °F 64.9 °F 93% 29.85 in 10.0 mi South 13.8 mph - N/A   Scattered Clouds
1:53 AM 66.0 °F 64.0 °F 93% 29.84 in 10.0 mi South 9.2 mph - N/A   Clear
2:23 AM 66.2 °F 64.4 °F 94% 29.85 in 10.0 mi South 5.8 mph - N/A   Partly Cloudy
2:38 AM 66.2 °F 64.4 °F 94% 29.86 in 10.0 mi South 6.9 mph - N/A   Mostly Cloudy
2:53 AM 66.0 °F 64.9 °F 96% 29.85 in 10.0 mi South 5.8 mph - N/A   Overcast
3:23 AM 66.2 °F 64.4 °F 94% 29.85 in 10.0 mi South 4.6 mph - N/A   Overcast
3:53 AM 64.9 °F 64.0 °F 97% 29.85 in 7.0 mi SSE 5.8 mph - N/A   Overcast
4:27 AM 64.4 °F 64.4 °F 100% 29.85 in 7.0 mi SSE 5.8 mph - N/A   Mostly Cloudy
4:46 AM 64.4 °F 64.4 °F 100% 29.85 in 6.0 mi SSE 4.6 mph - N/A   Overcast
4:53 AM 64.9 °F 64.0 °F 97% 29.85 in 6.0 mi SSE 5.8 mph - N/A   Overcast
5:27 AM 64.4 °F 64.4 °F 100% 29.86 in 7.0 mi South 6.9 mph - N/A   Mostly Cloudy
5:53 AM 64.9 °F 64.0 °F 97% 29.86 in 7.0 mi South 5.8 mph - N/A   Overcast
6:53 AM 64.9 °F 64.0 °F 97% 29.88 in 8.0 mi SSE 5.8 mph - N/A   Overcast
7:53 AM 66.0 °F 64.9 °F 96% 29.88 in 9.0 mi South 6.9 mph - N/A   Overcast
8:51 AM 66.2 °F 64.4 °F 94% 29.89 in 10.0 mi South 10.4 mph - N/A   Overcast
8:53 AM 68.0 °F 64.9 °F 90% 29.89 in 10.0 mi South 9.2 mph - N/A   Overcast
8:58 AM 68.0 °F 64.4 °F 88% 29.90 in 10.0 mi South 8.1 mph - N/A   Overcast
9:53 AM 70.0 °F 64.9 °F 84% 29.90 in 10.0 mi South 11.5 mph - N/A   Overcast
10:31 AM 71.6 °F 64.4 °F 78% 29.89 in 10.0 mi SSW 11.5 mph - N/A   Overcast
10:39 AM 71.6 °F 64.4 °F 78% 29.89 in 10.0 mi SSW 13.8 mph 19.6 mph N/A   Overcast
10:53 AM 73.0 °F 64.0 °F 73% 29.88 in 10.0 mi SSW 13.8 mph 21.9 mph N/A   Overcast
11:30 AM 73.4 °F 64.4 °F 73% 29.87 in 10.0 mi SW 15.0 mph 20.7 mph N/A   Scattered Clouds
11:53 AM 75.9 °F 63.0 °F 64% 29.85 in 10.0 mi SSW 16.1 mph 19.6 mph N/A   Mostly Cloudy
12:53 PM 75.9 °F 63.0 °F 64% 29.82 in 10.0 mi SSW 13.8 mph - N/A   Mostly Cloudy
1:53 PM 75.9 °F 62.1 °F 62% 29.79 in 9.0 mi SW 10.4 mph - N/A   Clear
2:53 PM 75.9 °F 62.1 °F 62% 29.79 in 10.0 mi SSW 13.8 mph - N/A   Partly Cloudy
4:53 PM 73.0 °F 62.1 °F 68% 29.78 in 10.0 mi South 8.1 mph - N/A   Clear
5:53 PM 71.1 °F 63.0 °F 75% 29.77 in 10.0 mi SSE 5.8 mph - 0.00 in Rain Light Rain
6:40 PM 71.6 °F 62.6 °F 73% 29.78 in 10.0 mi South 9.2 mph - 0.00 in Thunderstorm Partly Cloudy
6:53 PM 71.1 °F 63.0 °F 75% 29.78 in 10.0 mi South 13.8 mph - 0.00 in Thunderstorm Scattered Clouds
7:40 PM 66.2 °F 64.4 °F 94% 29.82 in 1.8 mi West 10.4 mph - 0.15 in Rain , Thunderstorm Heavy Thunderstorms and Rain
7:51 PM 64.4 °F 64.4 °F 100% 29.80 in 3.0 mi Calm Calm - 0.20 in Rain , Thunderstorm Thunderstorms and Rain
7:53 PM 64.9 °F 64.0 °F 97% 29.78 in 3.0 mi Calm Calm - 0.21 in Rain , Thunderstorm Thunderstorms and Rain
8:10 PM 64.4 °F 64.4 °F 100% 29.80 in 8.0 mi WSW 4.6 mph - 0.01 in Rain Light Rain
8:34 PM 64.4 °F 64.4 °F 100% 29.80 in 8.0 mi Calm Calm - 0.01 in   Mostly Cloudy
8:53 PM 64.9 °F 63.0 °F 93% 29.81 in 8.0 mi South 3.5 mph - 0.01 in   Mostly Cloudy
9:53 PM 61.0 °F 54.0 °F 78% 29.83 in 10.0 mi NW 11.5 mph - N/A   Clear
10:53 PM 57.9 °F 53.1 °F 84% 29.86 in 9.0 mi WNW 8.1 mph - N/A   Overcast
11:53 PM 54.0 °F 51.1 °F 90% 29.86 in 8.0 mi WNW 11.5 mph - 0.01 in   Overcast